Location: Christianberg
(48.9086°N, 14.0209°E)
Time: 21:05:36
(UTC+00:00)

DELTA 2 R/B (1) - Pass Details

Date: 20 June 2021
Orbit: 790 x 803 km, 39.6° (Epoch: 04 August)

Event Time Altitude Azimuth Distance (km) Brightness Sun altitude
Exits shadow 01:57:48 - 251° (WSW) 2,743 5.8 -8.1°
Reaches altitude 10° 01:58:59 10° 245° (WSW) 2,347 5.5 -8.0°
Maximum altitude 02:03:47 31° 185° (S) 1,362 4.4 -7.5°
Drops below altitude 10° 02:08:35 10° 125° (SE) 2,351 6.1 -6.9°
Sets 02:11:19 0° 115° (ESE) 3,282 7.0 -6.6°
